Year,Month,Day,Hour,Minute,Value (Times are PST for temperature in C)
2021,06,28,00,00,27.10
2021,06,28,00,01,27.00
2021,06,28,00,02,26.90
2021,06,28,00,03,26.90
2021,06,28,00,04,26.90
2021,06,28,00,05,26.80
2021,06,28,00,06,26.80
2021,06,28,00,07,26.80
2021,06,28,00,08,26.80
2021,06,28,00,09,26.70
2021,06,28,00,10,26.70
2021,06,28,00,11,26.70
2021,06,28,00,12,26.70
2021,06,28,00,13,26.60
2021,06,28,00,14,26.60
2021,06,28,00,15,26.60
2021,06,28,00,16,26.60
2021,06,28,00,17,26.60
2021,06,28,00,18,26.60
2021,06,28,00,19,26.60
2021,06,28,00,20,26.60
2021,06,28,00,21,26.60
2021,06,28,00,22,26.60
2021,06,28,00,23,26.60
2021,06,28,00,24,26.60
2021,06,28,00,25,26.40
2021,06,28,00,26,26.40
2021,06,28,00,27,26.40
2021,06,28,00,28,26.40
2021,06,28,00,29,26.40
2021,06,28,00,30,26.40
2021,06,28,00,31,26.40
2021,06,28,00,32,26.30
2021,06,28,00,33,26.30
2021,06,28,00,34,26.30
2021,06,28,00,35,26.30
2021,06,28,00,36,26.30
2021,06,28,00,37,26.30
2021,06,28,00,38,26.20
2021,06,28,00,39,26.20
2021,06,28,00,40,26.20
2021,06,28,00,41,26.20
2021,06,28,00,42,26.20
2021,06,28,00,43,26.20
2021,06,28,00,44,26.20
2021,06,28,00,45,26.20
2021,06,28,00,46,26.20
2021,06,28,00,47,26.20
2021,06,28,00,48,26.20
2021,06,28,00,49,26.20
2021,06,28,00,50,26.20
2021,06,28,00,51,26.10
2021,06,28,00,52,26.10
2021,06,28,00,53,26.10
2021,06,28,00,54,26.10
2021,06,28,00,55,26.10
2021,06,28,00,56,26.00
2021,06,28,00,57,26.00
2021,06,28,00,58,26.00
2021,06,28,00,59,26.00
2021,06,28,01,00,25.90
2021,06,28,01,01,25.90
2021,06,28,01,02,25.90
2021,06,28,01,03,25.80
2021,06,28,01,04,25.80
2021,06,28,01,05,25.70
2021,06,28,01,06,25.70
2021,06,28,01,07,25.60
2021,06,28,01,08,25.60
2021,06,28,01,09,25.50
2021,06,28,01,10,25.50
2021,06,28,01,11,25.40
2021,06,28,01,12,25.30
2021,06,28,01,13,25.30
2021,06,28,01,14,25.20
2021,06,28,01,15,25.10
2021,06,28,01,16,25.10
2021,06,28,01,17,25.00
2021,06,28,01,18,24.90
2021,06,28,01,19,24.90
2021,06,28,01,20,24.80
2021,06,28,01,21,24.70
2021,06,28,01,22,24.70
2021,06,28,01,23,24.60
2021,06,28,01,24,24.50
2021,06,28,01,25,24.50
2021,06,28,01,26,24.40
2021,06,28,01,27,24.30
2021,06,28,01,28,24.30
2021,06,28,01,29,24.20
2021,06,28,01,30,24.20
2021,06,28,01,31,24.10
2021,06,28,01,32,24.10
2021,06,28,01,33,24.00
2021,06,28,01,34,23.90
2021,06,28,01,35,23.80
2021,06,28,01,36,23.80
2021,06,28,01,37,23.70
2021,06,28,01,38,23.70
2021,06,28,01,39,23.60
2021,06,28,01,40,23.50
2021,06,28,01,41,23.40
2021,06,28,01,42,23.30
2021,06,28,01,43,23.30
2021,06,28,01,44,23.30
2021,06,28,01,45,23.20
2021,06,28,01,46,23.20
2021,06,28,01,47,23.10
2021,06,28,01,48,23.10
2021,06,28,01,49,23.00
2021,06,28,01,50,22.90
2021,06,28,01,51,22.90
2021,06,28,01,52,22.90
2021,06,28,01,53,22.90
2021,06,28,01,54,22.90
2021,06,28,01,55,22.90
2021,06,28,01,56,22.90
2021,06,28,01,57,22.90
2021,06,28,01,58,22.90
2021,06,28,01,59,22.90
2021,06,28,02,00,22.80
2021,06,28,02,01,22.80
2021,06,28,02,02,22.80
2021,06,28,02,03,22.80
2021,06,28,02,04,22.80
2021,06,28,02,05,22.80
2021,06,28,02,06,22.70
2021,06,28,02,07,22.70
2021,06,28,02,08,22.70
2021,06,28,02,09,22.60
2021,06,28,02,10,22.60
2021,06,28,02,11,22.60
2021,06,28,02,12,22.50
2021,06,28,02,13,22.50
2021,06,28,02,14,22.50
2021,06,28,02,15,22.40
2021,06,28,02,16,22.40
2021,06,28,02,17,22.40
2021,06,28,02,18,22.30
2021,06,28,02,19,22.30
2021,06,28,02,20,22.30
2021,06,28,02,21,22.30
2021,06,28,02,22,22.30
2021,06,28,02,23,22.30
2021,06,28,02,24,22.20
2021,06,28,02,25,22.20
2021,06,28,02,26,22.20
2021,06,28,02,27,22.20
2021,06,28,02,28,22.20
2021,06,28,02,29,22.10
2021,06,28,02,30,22.10
2021,06,28,02,31,22.10
2021,06,28,02,32,22.00
2021,06,28,02,33,22.00
2021,06,28,02,34,22.00
2021,06,28,02,35,22.00
2021,06,28,02,36,22.00
2021,06,28,02,37,22.00
2021,06,28,02,38,22.00
2021,06,28,02,39,22.00
2021,06,28,02,40,22.00
2021,06,28,02,41,22.00
2021,06,28,02,42,22.00
2021,06,28,02,43,22.00
2021,06,28,02,44,21.90
2021,06,28,02,45,21.90
2021,06,28,02,46,21.90
2021,06,28,02,47,21.90
2021,06,28,02,48,21.80
2021,06,28,02,49,21.80
2021,06,28,02,50,21.80
2021,06,28,02,51,21.80
2021,06,28,02,52,21.80
2021,06,28,02,53,21.90
2021,06,28,02,54,21.90
2021,06,28,02,55,21.90
2021,06,28,02,56,21.90
2021,06,28,02,57,21.80
2021,06,28,02,58,21.80
2021,06,28,02,59,21.80
2021,06,28,03,00,21.80
2021,06,28,03,01,21.80
2021,06,28,03,02,21.90
2021,06,28,03,03,21.90
2021,06,28,03,04,21.90
2021,06,28,03,05,21.90
2021,06,28,03,06,21.90
2021,06,28,03,07,22.00
2021,06,28,03,08,22.00
2021,06,28,03,09,22.00
2021,06,28,03,10,21.90
2021,06,28,03,11,21.90
2021,06,28,03,12,21.90
2021,06,28,03,13,21.80
2021,06,28,03,14,21.80
2021,06,28,03,15,21.80
2021,06,28,03,16,21.80
2021,06,28,03,17,21.80
2021,06,28,03,18,21.80
2021,06,28,03,19,21.80
2021,06,28,03,20,21.80
2021,06,28,03,21,21.80
2021,06,28,03,22,21.80
2021,06,28,03,23,21.90
2021,06,28,03,24,21.90
2021,06,28,03,25,22.00
2021,06,28,03,26,22.10
2021,06,28,03,27,22.20
2021,06,28,03,28,22.20
2021,06,28,03,29,22.30
2021,06,28,03,30,22.40
2021,06,28,03,31,22.40
2021,06,28,03,32,22.50
2021,06,28,03,33,22.50
2021,06,28,03,34,22.50
2021,06,28,03,35,22.50
2021,06,28,03,36,22.50
2021,06,28,03,37,22.50
2021,06,28,03,38,22.50
2021,06,28,03,39,22.50
2021,06,28,03,40,22.50
2021,06,28,03,41,22.50
2021,06,28,03,42,22.50
2021,06,28,03,43,22.50
2021,06,28,03,44,22.60
2021,06,28,03,45,22.60
2021,06,28,03,46,22.60
2021,06,28,03,47,22.70
2021,06,28,03,48,22.70
2021,06,28,03,49,22.70
2021,06,28,03,50,22.70
2021,06,28,03,51,22.80
2021,06,28,03,52,22.80
2021,06,28,03,53,22.80
2021,06,28,03,54,22.80
2021,06,28,03,55,22.80
2021,06,28,03,56,22.70
2021,06,28,03,57,22.60
2021,06,28,03,58,22.40
2021,06,28,03,59,22.30
2021,06,28,04,00,22.10
2021,06,28,04,01,22.00
2021,06,28,04,02,21.90
2021,06,28,04,03,21.80
2021,06,28,04,04,21.70
2021,06,28,04,05,21.60
2021,06,28,04,06,21.50
2021,06,28,04,07,21.40
2021,06,28,04,08,21.20
2021,06,28,04,09,21.00
2021,06,28,04,10,21.00
2021,06,28,04,11,20.90
2021,06,28,04,12,20.80
2021,06,28,04,13,20.70
2021,06,28,04,14,20.60
2021,06,28,04,15,20.50
2021,06,28,04,16,20.40
2021,06,28,04,17,20.30
2021,06,28,04,18,20.20
2021,06,28,04,19,20.20
2021,06,28,04,20,20.20
2021,06,28,04,21,20.20
2021,06,28,04,22,20.10
2021,06,28,04,23,20.10
2021,06,28,04,24,20.10
2021,06,28,04,25,20.10
2021,06,28,04,26,20.10
2021,06,28,04,27,20.20
2021,06,28,04,28,20.20
2021,06,28,04,29,20.20
2021,06,28,04,30,20.20
2021,06,28,04,31,20.30
2021,06,28,04,32,20.40
2021,06,28,04,33,20.50
2021,06,28,04,34,20.50
2021,06,28,04,35,20.60
2021,06,28,04,36,20.70
2021,06,28,04,37,20.70
2021,06,28,04,38,20.80
2021,06,28,04,39,20.90
2021,06,28,04,40,21.00
2021,06,28,04,41,21.10
2021,06,28,04,42,21.20
2021,06,28,04,43,21.30
2021,06,28,04,44,21.30
2021,06,28,04,45,21.30
2021,06,28,04,46,21.30
2021,06,28,04,47,21.30
2021,06,28,04,48,21.40
2021,06,28,04,49,21.50
2021,06,28,04,50,21.60
2021,06,28,04,51,21.60
2021,06,28,04,52,21.60
2021,06,28,04,53,21.60
2021,06,28,04,54,21.60
2021,06,28,04,55,21.60
2021,06,28,04,56,21.60
2021,06,28,04,57,21.60
2021,06,28,04,58,21.60
2021,06,28,04,59,21.70
2021,06,28,05,00,21.70
2021,06,28,05,01,21.80
2021,06,28,05,02,21.90
2021,06,28,05,03,22.00
2021,06,28,05,04,22.00
2021,06,28,05,05,22.10
2021,06,28,05,06,22.10
2021,06,28,05,07,22.10
2021,06,28,05,08,22.20
2021,06,28,05,09,22.20
2021,06,28,05,10,22.20
2021,06,28,05,11,22.10
2021,06,28,05,12,22.10
2021,06,28,05,13,22.10
2021,06,28,05,14,22.00
2021,06,28,05,15,21.90
2021,06,28,05,16,21.90
2021,06,28,05,17,21.70
2021,06,28,05,18,21.60
2021,06,28,05,19,21.50
2021,06,28,05,20,21.40
2021,06,28,05,21,21.30
2021,06,28,05,22,21.20
2021,06,28,05,23,21.10
2021,06,28,05,24,21.00
2021,06,28,05,25,21.00
2021,06,28,05,26,20.90
2021,06,28,05,27,20.90
2021,06,28,05,28,20.80
2021,06,28,05,29,20.80
2021,06,28,05,30,20.80
2021,06,28,05,31,20.70
2021,06,28,05,32,20.70
2021,06,28,05,33,20.70
2021,06,28,05,34,20.70
2021,06,28,05,35,20.70
2021,06,28,05,36,20.70
2021,06,28,05,37,20.60
2021,06,28,05,38,20.70
2021,06,28,05,39,20.70
2021,06,28,05,40,20.80
2021,06,28,05,41,21.00
2021,06,28,05,42,21.30
2021,06,28,05,43,21.40
2021,06,28,05,44,21.60
2021,06,28,05,45,21.80
2021,06,28,05,46,22.00
2021,06,28,05,47,22.00
2021,06,28,05,48,22.00
2021,06,28,05,49,22.10
2021,06,28,05,50,22.10
2021,06,28,05,51,22.10
2021,06,28,05,52,22.10
2021,06,28,05,53,22.10
2021,06,28,05,54,22.10
2021,06,28,05,55,22.10
2021,06,28,05,56,22.10
2021,06,28,05,57,22.00
2021,06,28,05,58,22.00
2021,06,28,05,59,22.10
2021,06,28,06,00,22.10
2021,06,28,06,01,22.20
2021,06,28,06,02,22.20
2021,06,28,06,03,22.40
2021,06,28,06,04,22.60
2021,06,28,06,05,22.80
2021,06,28,06,06,23.00
2021,06,28,06,07,23.20
2021,06,28,06,08,23.40
2021,06,28,06,09,23.60
2021,06,28,06,10,23.80
2021,06,28,06,11,24.00
2021,06,28,06,12,24.10
2021,06,28,06,13,24.30
2021,06,28,06,14,24.50
2021,06,28,06,15,24.60
2021,06,28,06,16,24.80
2021,06,28,06,17,24.90
2021,06,28,06,18,24.90
2021,06,28,06,19,24.90
2021,06,28,06,20,24.90
2021,06,28,06,21,24.90
2021,06,28,06,22,24.90
2021,06,28,06,23,24.90
2021,06,28,06,24,25.00
2021,06,28,06,25,25.00
2021,06,28,06,26,25.10
2021,06,28,06,27,25.20
2021,06,28,06,28,25.30
2021,06,28,06,29,25.40
2021,06,28,06,30,25.40
2021,06,28,06,31,25.50
2021,06,28,06,32,25.50
2021,06,28,06,33,25.50
2021,06,28,06,34,25.50
2021,06,28,06,35,25.50
2021,06,28,06,36,25.40
2021,06,28,06,37,25.40
2021,06,28,06,38,25.40
2021,06,28,06,39,25.40
2021,06,28,06,40,25.40
2021,06,28,06,41,25.40
2021,06,28,06,42,25.50
2021,06,28,06,43,25.50
2021,06,28,06,44,25.60
2021,06,28,06,45,25.60
2021,06,28,06,46,25.60
2021,06,28,06,47,25.50
2021,06,28,06,48,25.50
2021,06,28,06,49,25.50
2021,06,28,06,50,25.60
2021,06,28,06,51,25.60
2021,06,28,06,52,25.70
2021,06,28,06,53,25.70
2021,06,28,06,54,25.80
2021,06,28,06,55,25.90
2021,06,28,06,56,26.00
2021,06,28,06,57,26.10
2021,06,28,06,58,26.20
2021,06,28,06,59,26.20
2021,06,28,07,00,26.30
2021,06,28,07,01,26.30
2021,06,28,07,02,26.40
2021,06,28,07,03,26.40
2021,06,28,07,04,26.40
2021,06,28,07,05,26.40
2021,06,28,07,06,26.50
2021,06,28,07,07,26.60
2021,06,28,07,08,26.60
2021,06,28,07,09,26.60
2021,06,28,07,10,26.70
2021,06,28,07,11,26.80
2021,06,28,07,12,26.90
2021,06,28,07,13,27.00
2021,06,28,07,14,27.10
2021,06,28,07,15,27.20
2021,06,28,07,16,27.30
2021,06,28,07,17,27.30
2021,06,28,07,18,27.40
2021,06,28,07,19,27.40
2021,06,28,07,20,27.60
2021,06,28,07,21,27.60
2021,06,28,07,22,27.60
2021,06,28,07,23,27.70
2021,06,28,07,24,27.70
2021,06,28,07,25,27.80
2021,06,28,07,26,27.80
2021,06,28,07,27,27.90
2021,06,28,07,28,28.00
2021,06,28,07,29,28.00
2021,06,28,07,30,28.00
2021,06,28,07,31,28.10
2021,06,28,07,32,28.10
2021,06,28,07,33,28.10
2021,06,28,07,34,28.20
2021,06,28,07,35,28.30
2021,06,28,07,36,28.30
2021,06,28,07,37,28.40
2021,06,28,07,38,28.40
2021,06,28,07,39,28.50
2021,06,28,07,40,28.60
2021,06,28,07,41,28.60
2021,06,28,07,42,28.70
2021,06,28,07,43,28.70
2021,06,28,07,44,28.80
2021,06,28,07,45,28.80
2021,06,28,07,46,28.90
2021,06,28,07,47,28.90
2021,06,28,07,48,28.90
2021,06,28,07,49,28.90
2021,06,28,07,50,28.90
2021,06,28,07,51,29.00
2021,06,28,07,52,29.10
2021,06,28,07,53,29.10
2021,06,28,07,54,29.10
2021,06,28,07,55,29.20
2021,06,28,07,56,29.20
2021,06,28,07,57,29.20
2021,06,28,07,58,29.20
2021,06,28,07,59,29.20
2021,06,28,08,00,29.30
2021,06,28,08,01,29.30
2021,06,28,08,02,29.30
2021,06,28,08,03,29.30
2021,06,28,08,04,29.40
2021,06,28,08,05,29.40
2021,06,28,08,06,29.40
2021,06,28,08,07,29.40
2021,06,28,08,08,29.50
2021,06,28,08,09,29.50
2021,06,28,08,10,29.50
2021,06,28,08,11,29.50
2021,06,28,08,12,29.50
2021,06,28,08,13,29.50
2021,06,28,08,14,29.50
2021,06,28,08,15,29.60
2021,06,28,08,16,29.60
2021,06,28,08,17,29.60
2021,06,28,08,18,29.60
2021,06,28,08,19,29.60
2021,06,28,08,20,29.60
2021,06,28,08,21,29.50
2021,06,28,08,22,29.50
2021,06,28,08,23,29.50
2021,06,28,08,24,29.50
2021,06,28,08,25,29.50
2021,06,28,08,26,29.60
2021,06,28,08,27,29.60
2021,06,28,08,28,29.60
2021,06,28,08,29,29.60
2021,06,28,08,30,29.60
2021,06,28,08,31,29.70
2021,06,28,08,32,29.70
2021,06,28,08,33,29.70
2021,06,28,08,34,29.70
2021,06,28,08,35,29.70
2021,06,28,08,36,29.70
2021,06,28,08,37,29.70
2021,06,28,08,38,29.70
2021,06,28,08,39,29.70
2021,06,28,08,40,29.70
2021,06,28,08,41,29.70
2021,06,28,08,42,29.70
2021,06,28,08,43,29.70
2021,06,28,08,44,29.70
2021,06,28,08,45,29.60
2021,06,28,08,46,29.60
2021,06,28,08,47,29.60
2021,06,28,08,48,29.50
2021,06,28,08,49,29.40
2021,06,28,08,50,29.30
2021,06,28,08,51,29.30
2021,06,28,08,52,29.30
2021,06,28,08,53,29.20
2021,06,28,08,54,29.20
2021,06,28,08,55,29.20
2021,06,28,08,56,29.20
2021,06,28,08,57,29.10
2021,06,28,08,58,29.10
2021,06,28,08,59,29.10
2021,06,28,09,00,29.10
2021,06,28,09,01,29.10
2021,06,28,09,02,29.10
2021,06,28,09,03,29.00
2021,06,28,09,04,28.90
2021,06,28,09,05,28.90
2021,06,28,09,06,28.90
2021,06,28,09,07,28.90
2021,06,28,09,08,28.90
2021,06,28,09,09,28.90
2021,06,28,09,10,28.90
2021,06,28,09,11,28.90
2021,06,28,09,12,28.90
2021,06,28,09,13,28.90
2021,06,28,09,14,28.90
2021,06,28,09,15,28.80
2021,06,28,09,16,28.80
2021,06,28,09,17,28.80
2021,06,28,09,18,28.80
2021,06,28,09,19,28.80
2021,06,28,09,20,28.80
2021,06,28,09,21,28.80
2021,06,28,09,22,28.80
2021,06,28,09,23,28.70
2021,06,28,09,24,28.80
2021,06,28,09,25,28.80
2021,06,28,09,26,28.80
2021,06,28,09,27,28.80
2021,06,28,09,28,28.90
2021,06,28,09,29,28.90
2021,06,28,09,30,29.00
2021,06,28,09,31,29.10
2021,06,28,09,32,29.10
2021,06,28,09,33,29.20
2021,06,28,09,34,29.20
2021,06,28,09,35,29.20
2021,06,28,09,36,29.10
2021,06,28,09,37,29.00
2021,06,28,09,38,28.90
2021,06,28,09,39,28.80
2021,06,28,09,40,28.60
2021,06,28,09,41,28.50
2021,06,28,09,42,28.40
2021,06,28,09,43,28.30
2021,06,28,09,44,28.10
2021,06,28,09,45,28.00
2021,06,28,09,46,27.80
2021,06,28,09,47,27.70
2021,06,28,09,48,27.60
2021,06,28,09,49,27.40
2021,06,28,09,50,27.30
2021,06,28,09,51,27.20
2021,06,28,09,52,27.20
2021,06,28,09,53,27.10
2021,06,28,09,54,27.00
2021,06,28,09,55,26.90
2021,06,28,09,56,26.80
2021,06,28,09,57,26.80
2021,06,28,09,58,26.80
2021,06,28,09,59,26.80
2021,06,28,10,00,26.80
2021,06,28,10,01,26.80
2021,06,28,10,02,26.80
2021,06,28,10,03,26.80
2021,06,28,10,04,26.80
2021,06,28,10,05,26.70
2021,06,28,10,06,26.60
2021,06,28,10,07,26.50
2021,06,28,10,08,26.40
2021,06,28,10,09,26.30
2021,06,28,10,10,26.40
2021,06,28,10,11,26.40
2021,06,28,10,12,26.40
2021,06,28,10,13,26.40
2021,06,28,10,14,26.40
2021,06,28,10,15,26.40
2021,06,28,10,16,26.40
2021,06,28,10,17,26.50
2021,06,28,10,18,26.60
2021,06,28,10,19,26.70
2021,06,28,10,20,26.80
2021,06,28,10,21,26.90
2021,06,28,10,22,27.00
2021,06,28,10,23,27.20
2021,06,28,10,24,27.20
2021,06,28,10,25,27.30
2021,06,28,10,26,27.30
2021,06,28,10,27,27.30
2021,06,28,10,28,27.30
2021,06,28,10,29,27.30
2021,06,28,10,30,27.30
2021,06,28,10,31,27.30
2021,06,28,10,32,27.20
2021,06,28,10,33,27.10
2021,06,28,10,34,26.90
2021,06,28,10,35,26.80
2021,06,28,10,36,26.70
2021,06,28,10,37,26.60
2021,06,28,10,38,26.60
2021,06,28,10,39,26.60
2021,06,28,10,40,26.60
2021,06,28,10,41,26.60
2021,06,28,10,42,26.60
2021,06,28,10,43,26.60
2021,06,28,10,44,26.60
2021,06,28,10,45,26.70
2021,06,28,10,46,26.80
2021,06,28,10,47,26.80
2021,06,28,10,48,26.90
2021,06,28,10,49,27.00
2021,06,28,10,50,27.20
2021,06,28,10,51,27.30
2021,06,28,10,52,27.40
2021,06,28,10,53,27.50
2021,06,28,10,54,27.60
2021,06,28,10,55,27.80
2021,06,28,10,56,27.90
2021,06,28,10,57,28.00
2021,06,28,10,58,28.10
2021,06,28,10,59,28.20
2021,06,28,11,00,28.20
2021,06,28,11,01,28.40
2021,06,28,11,02,28.50
2021,06,28,11,03,28.60
2021,06,28,11,04,28.80
2021,06,28,11,05,28.90
2021,06,28,11,06,28.90
2021,06,28,11,07,29.00
2021,06,28,11,08,29.10
2021,06,28,11,09,29.20
2021,06,28,11,10,29.30
2021,06,28,11,11,29.40
2021,06,28,11,12,29.40
2021,06,28,11,13,29.40
2021,06,28,11,14,29.50
2021,06,28,11,15,29.50
2021,06,28,11,16,29.50
2021,06,28,11,17,29.60
2021,06,28,11,18,29.80
2021,06,28,11,19,29.90
2021,06,28,11,20,30.00
2021,06,28,11,21,30.10
2021,06,28,11,22,30.30
2021,06,28,11,23,30.40
2021,06,28,11,24,30.50
2021,06,28,11,25,30.60
2021,06,28,11,26,30.70
2021,06,28,11,27,30.70
2021,06,28,11,28,30.70
2021,06,28,11,29,30.70
2021,06,28,11,30,30.70
2021,06,28,11,31,30.60
2021,06,28,11,32,30.60
2021,06,28,11,33,30.60
2021,06,28,11,34,30.50
2021,06,28,11,35,30.40
2021,06,28,11,36,30.40
2021,06,28,11,37,30.30
2021,06,28,11,38,30.20
2021,06,28,11,39,30.10
2021,06,28,11,40,30.00
2021,06,28,11,41,29.90
2021,06,28,11,42,29.80
2021,06,28,11,43,29.80
2021,06,28,11,44,29.70
2021,06,28,11,45,29.70
2021,06,28,11,46,29.70
2021,06,28,11,47,29.80
2021,06,28,11,48,29.90
2021,06,28,11,49,29.90
2021,06,28,11,50,30.10
2021,06,28,11,51,30.20
2021,06,28,11,52,30.30
2021,06,28,11,53,30.40
2021,06,28,11,54,30.50
2021,06,28,11,55,30.60
2021,06,28,11,56,30.70
2021,06,28,11,57,30.70
2021,06,28,11,58,30.70
2021,06,28,11,59,30.70
2021,06,28,12,00,30.60
2021,06,28,12,01,30.60
2021,06,28,12,02,30.70
2021,06,28,12,03,30.70
2021,06,28,12,04,30.70
2021,06,28,12,05,30.80
2021,06,28,12,06,30.80
2021,06,28,12,07,30.80
2021,06,28,12,08,30.80
2021,06,28,12,09,30.80
2021,06,28,12,10,30.80
2021,06,28,12,11,30.80
2021,06,28,12,12,30.70
2021,06,28,12,13,30.60
2021,06,28,12,14,30.40
2021,06,28,12,15,30.30
2021,06,28,12,16,30.10
2021,06,28,12,17,30.00
2021,06,28,12,18,29.90
2021,06,28,12,19,29.80
2021,06,28,12,20,29.80
2021,06,28,12,21,29.80
2021,06,28,12,22,29.90
2021,06,28,12,23,29.90
2021,06,28,12,24,30.00
2021,06,28,12,25,30.10
2021,06,28,12,26,30.20
2021,06,28,12,27,30.20
2021,06,28,12,28,30.30
2021,06,28,12,29,30.40
2021,06,28,12,30,30.60
2021,06,28,12,31,30.70
2021,06,28,12,32,30.90
2021,06,28,12,33,31.10
2021,06,28,12,34,31.30
2021,06,28,12,35,31.40
2021,06,28,12,36,31.60
2021,06,28,12,37,31.70
2021,06,28,12,38,31.90
2021,06,28,12,39,32.10
2021,06,28,12,40,32.20
2021,06,28,12,41,32.30
2021,06,28,12,42,32.40
2021,06,28,12,43,32.50
2021,06,28,12,44,32.60
2021,06,28,12,45,32.70
2021,06,28,12,46,32.80
2021,06,28,12,47,32.90
2021,06,28,12,48,32.90
2021,06,28,12,49,32.90
2021,06,28,12,50,32.90
2021,06,28,12,51,32.80
2021,06,28,12,52,32.70
2021,06,28,12,53,32.60
2021,06,28,12,54,32.60
2021,06,28,12,55,32.60
2021,06,28,12,56,32.70
2021,06,28,12,57,32.80
2021,06,28,12,58,32.80
2021,06,28,12,59,32.90
2021,06,28,13,00,33.00
2021,06,28,13,01,33.10
2021,06,28,13,02,33.10
2021,06,28,13,03,33.20
2021,06,28,13,04,33.20
2021,06,28,13,05,33.40
2021,06,28,13,06,33.40
2021,06,28,13,07,33.50
2021,06,28,13,08,33.50
2021,06,28,13,09,33.50
2021,06,28,13,10,33.60
2021,06,28,13,11,33.60
2021,06,28,13,12,33.60
2021,06,28,13,13,33.60
2021,06,28,13,14,33.60
2021,06,28,13,15,33.60
2021,06,28,13,16,33.60
2021,06,28,13,17,33.60
2021,06,28,13,18,33.60
2021,06,28,13,19,33.60
2021,06,28,13,20,33.60
2021,06,28,13,21,33.60
2021,06,28,13,22,33.60
2021,06,28,13,23,33.60
2021,06,28,13,24,33.60
2021,06,28,13,25,33.50
2021,06,28,13,26,33.50
2021,06,28,13,27,33.50
2021,06,28,13,28,33.50
2021,06,28,13,29,33.50
2021,06,28,13,30,33.60
2021,06,28,13,31,33.60
2021,06,28,13,32,33.70
2021,06,28,13,33,33.80
2021,06,28,13,34,33.90
2021,06,28,13,35,34.00
2021,06,28,13,36,34.10
2021,06,28,13,37,34.20
2021,06,28,13,38,34.30
2021,06,28,13,39,34.30
2021,06,28,13,40,34.30
2021,06,28,13,41,34.30
2021,06,28,13,42,34.30
2021,06,28,13,43,34.30
2021,06,28,13,44,34.30
2021,06,28,13,45,34.30
2021,06,28,13,46,34.30
2021,06,28,13,47,34.30
2021,06,28,13,48,34.40
2021,06,28,13,49,34.40
2021,06,28,13,50,34.60
2021,06,28,13,51,34.60
2021,06,28,13,52,34.60
2021,06,28,13,53,34.70
2021,06,28,13,54,34.70
2021,06,28,13,55,34.80
2021,06,28,13,56,34.80
2021,06,28,13,57,34.80
2021,06,28,13,58,34.90
2021,06,28,13,59,34.90
2021,06,28,14,00,35.00
2021,06,28,14,01,35.10
2021,06,28,14,02,35.10
2021,06,28,14,03,35.20
2021,06,28,14,04,35.20
2021,06,28,14,05,35.30
2021,06,28,14,06,35.30
2021,06,28,14,07,35.30
2021,06,28,14,08,35.50
2021,06,28,14,09,35.50
2021,06,28,14,10,35.40
2021,06,28,14,11,35.30
2021,06,28,14,12,35.30
2021,06,28,14,13,35.40
2021,06,28,14,14,35.50
2021,06,28,14,15,35.50
2021,06,28,14,16,35.50
2021,06,28,14,17,35.50
2021,06,28,14,18,35.50
2021,06,28,14,19,35.60
2021,06,28,14,20,35.60
2021,06,28,14,21,35.60
2021,06,28,14,22,35.60
2021,06,28,14,23,35.60
2021,06,28,14,24,35.60
2021,06,28,14,25,35.70
2021,06,28,14,26,35.70
2021,06,28,14,27,35.60
2021,06,28,14,28,35.60
2021,06,28,14,29,35.60
2021,06,28,14,30,35.60
2021,06,28,14,31,35.60
2021,06,28,14,32,35.60
2021,06,28,14,33,35.60
2021,06,28,14,34,35.60
2021,06,28,14,35,35.70
2021,06,28,14,36,35.70
2021,06,28,14,37,35.70
2021,06,28,14,38,35.70
2021,06,28,14,39,35.70
2021,06,28,14,40,35.80
2021,06,28,14,41,35.90
2021,06,28,14,42,35.90
2021,06,28,14,43,35.90
2021,06,28,14,44,36.00
2021,06,28,14,45,36.00
2021,06,28,14,46,36.00
2021,06,28,14,47,36.00
2021,06,28,14,48,36.00
2021,06,28,14,49,36.10
2021,06,28,14,50,36.20
2021,06,28,14,51,36.20
2021,06,28,14,52,36.30
2021,06,28,14,53,36.30
2021,06,28,14,54,36.30
2021,06,28,14,55,36.30
2021,06,28,14,56,36.30
2021,06,28,14,57,36.30
2021,06,28,14,58,36.40
2021,06,28,14,59,36.30
2021,06,28,15,00,36.30
2021,06,28,15,01,36.30
2021,06,28,15,02,36.30
2021,06,28,15,03,36.30
2021,06,28,15,04,36.30
2021,06,28,15,05,36.30
2021,06,28,15,06,36.30
2021,06,28,15,07,36.40
2021,06,28,15,08,36.50
2021,06,28,15,09,36.60
2021,06,28,15,10,36.60
2021,06,28,15,11,36.70
2021,06,28,15,12,36.70
2021,06,28,15,13,36.70
2021,06,28,15,14,36.70
2021,06,28,15,15,36.60
2021,06,28,15,16,36.60
2021,06,28,15,17,36.60
2021,06,28,15,18,36.60
2021,06,28,15,19,36.60
2021,06,28,15,20,36.60
2021,06,28,15,21,36.60
2021,06,28,15,22,36.60
2021,06,28,15,23,36.60
2021,06,28,15,24,36.60
2021,06,28,15,25,36.70
2021,06,28,15,26,36.70
2021,06,28,15,27,36.70
2021,06,28,15,28,36.70
2021,06,28,15,29,36.70
2021,06,28,15,30,36.70
2021,06,28,15,31,36.70
2021,06,28,15,32,36.80
2021,06,28,15,33,36.80
2021,06,28,15,34,36.90
2021,06,28,15,35,36.90
2021,06,28,15,36,37.10
2021,06,28,15,37,37.10
2021,06,28,15,38,37.20
2021,06,28,15,39,37.20
2021,06,28,15,40,37.20
2021,06,28,15,41,37.20
2021,06,28,15,42,37.20
2021,06,28,15,43,37.20
2021,06,28,15,44,37.20
2021,06,28,15,45,37.20
2021,06,28,15,46,37.20
2021,06,28,15,47,37.20
2021,06,28,15,48,37.20
2021,06,28,15,49,37.20
2021,06,28,15,50,37.20
2021,06,28,15,51,37.10
2021,06,28,15,52,37.10
2021,06,28,15,53,37.10
2021,06,28,15,54,37.10
2021,06,28,15,55,37.10
2021,06,28,15,56,37.10
2021,06,28,15,57,37.10
2021,06,28,15,58,37.10
2021,06,28,15,59,37.10
2021,06,28,16,00,37.10
2021,06,28,16,01,37.00
2021,06,28,16,02,36.90
2021,06,28,16,03,36.90
2021,06,28,16,04,36.90
2021,06,28,16,05,36.80
2021,06,28,16,06,36.80
2021,06,28,16,07,36.80
2021,06,28,16,08,36.80
2021,06,28,16,09,36.80
2021,06,28,16,10,36.80
2021,06,28,16,11,36.80
2021,06,28,16,12,36.80
2021,06,28,16,13,36.80
2021,06,28,16,14,36.80
2021,06,28,16,15,36.80
2021,06,28,16,16,36.80
2021,06,28,16,17,36.80
2021,06,28,16,18,36.80
2021,06,28,16,19,36.80
2021,06,28,16,20,36.90
2021,06,28,16,21,36.90
2021,06,28,16,22,36.80
2021,06,28,16,23,36.80
2021,06,28,16,24,36.80
2021,06,28,16,25,36.80
2021,06,28,16,26,36.80
2021,06,28,16,27,36.80
2021,06,28,16,28,36.80
2021,06,28,16,29,36.80
2021,06,28,16,30,36.80
2021,06,28,16,31,36.80
2021,06,28,16,32,36.80
2021,06,28,16,33,36.80
2021,06,28,16,34,36.80
2021,06,28,16,35,36.80
2021,06,28,16,36,36.80
2021,06,28,16,37,36.80
2021,06,28,16,38,36.80
2021,06,28,16,39,36.80
2021,06,28,16,40,36.70
2021,06,28,16,41,36.70
2021,06,28,16,42,36.60
2021,06,28,16,43,36.50
2021,06,28,16,44,36.40
2021,06,28,16,45,36.30
2021,06,28,16,46,36.20
2021,06,28,16,47,36.10
2021,06,28,16,48,36.00
2021,06,28,16,49,35.90
2021,06,28,16,50,35.80
2021,06,28,16,51,35.70
2021,06,28,16,52,35.60
2021,06,28,16,53,35.60
2021,06,28,16,54,35.60
2021,06,28,16,55,35.70
2021,06,28,16,56,35.70
2021,06,28,16,57,35.70
2021,06,28,16,58,35.80
2021,06,28,16,59,35.90
2021,06,28,17,00,35.90
2021,06,28,17,01,36.00
2021,06,28,17,02,36.00
2021,06,28,17,03,36.20
2021,06,28,17,04,36.20
2021,06,28,17,05,36.30
2021,06,28,17,06,36.40
2021,06,28,17,07,36.40
2021,06,28,17,08,36.50
2021,06,28,17,09,36.60
2021,06,28,17,10,36.60
2021,06,28,17,11,36.60
2021,06,28,17,12,36.70
2021,06,28,17,13,36.70
2021,06,28,17,14,36.70
2021,06,28,17,15,36.70
2021,06,28,17,16,36.60
2021,06,28,17,17,36.60
2021,06,28,17,18,36.60
2021,06,28,17,19,36.50